Narsarsuaq, Greenland

4:45 PM -02 on July 26, 2017 (GMT -0200)
Narsarsuaq

Weather History for BGBW - January, 2014

Change the Weather History Date:

Tuesday, January 14, 2014

  Actual Average Record
Temperature  
Mean Temperature 33 °F -  
Max Temperature 38 °F 28 °F 46 °F (2000)
Min Temperature 28 °F 13 °F -7 °F (2007)
Degree Days  
Heating Degree Days 32    
Moisture  
Dew Point 13 °F    
Average Humidity 36    
Maximum Humidity 87    
Minimum Humidity 13    
Precipitation  
Precipitation 0.00 in 0.05 in - ()
Sea Level Pressure  
Sea Level Pressure 29.73 in    
Wind  
Wind Speed 21 mph ()    
Max Wind Speed 34 mph    
Max Gust Speed 48 mph    
Visibility 6.7 miles    
Events Rain , Snow    
Averages and records for this station are not official NWS values.
T = Trace of Precipitation, MM = Missing Value Source: Averaged Metar Reports

Daily Weather History Graph

Daily Weather History Graph

Search for Another Location

Airport or City:

Trip Planner

Search our weather history database for the weather conditions in past years. The results will help you decide how hot, cold, wet, or windy it might be!

Date:

Astronomy

Jan. 14, 2014 Rise Set
Actual Time 9:00 AM -03 3:22 PM -03
Civil Twilight 8:03 AM -03 4:18 PM -03
Nautical Twilight 7:07 AM -03 5:14 PM -03
Astronomical Twilight 6:15 AM -03 6:07 PM -03
Moon 2:31 PM -03 (1/14) 7:20 AM -03 (1/14)
Length of Visible Light 8h 14m
Length of Day
6h 21m
Waxing Gibbous, 98% of the Moon is Illuminated
Jan 14
Waxing Gibbous
Jan 16
Full
Jan 24
Last Quarter
Jan 30
New
Feb 6
First Quarter

Hourly Weather History & Observations

Time (-03) Temp. Windchill Dew Point Humidity Pressure Visibility Wind Dir Wind Speed Gust Speed Precip Events Conditions
12:00 AM 37 °F - 15 °F 26% 29.37 in 6 mi ENE 28.8 mph - -   Unknown Precipitation
1:00 AM 38 °F - 14 °F 24% 29.39 in 22 mi ENE 26.5 mph - -   Clear
2:00 AM 37 °F - 12 °F 22% 29.43 in 6 mi ENE 31.1 mph - - Rain Rain Showers
3:00 AM 37 °F - 13 °F 23% 29.48 in 11 mi ENE 34.5 mph - -   Unknown Precipitation
3:50 AM 37.4 °F 24.4 °F 15.8 °F 41% 29.50 in 6.2 mi ENE 33.4 mph 48.3 mph N/A   Mostly Cloudy
4:00 AM 38 °F - 10 °F 19% 29.53 in 9 mi ENE 27.6 mph - -   Clear
4:50 AM 39.2 °F 27.8 °F 14.0 °F 36% 29.53 in 6.2 mi East 27.6 mph 39.1 mph N/A   Mostly Cloudy
5:00 AM 38 °F - 9 °F 17% 29.56 in 19 mi ENE 31.1 mph - -   Clear
5:50 AM 37.4 °F 26.1 °F 12.2 °F 36% 29.59 in 6.2 mi East 24.2 mph 35.7 mph N/A   Mostly Cloudy
6:00 AM 38 °F - 8 °F 15% 29.62 in 10 mi ENE 23.0 mph - -   Clear
6:50 AM 37.4 °F 26.6 °F 10.4 °F 33% 29.65 in 6.2 mi ENE 21.9 mph - N/A Snow Low Drifting Snow
7:00 AM 37 °F - 7 °F 15% 29.67 in 25 mi ENE 24.2 mph - -   Clear
7:50 AM 35.6 °F 23.2 °F 10.4 °F 35% 29.68 in 6.2 mi ENE 26.5 mph - N/A Snow Low Drifting Snow
8:00 AM 36 °F - 7 °F 16% 29.71 in 28 mi ENE 24.2 mph - -   Clear
8:50 AM 35.6 °F 22.7 °F 10.4 °F 35% 29.71 in 6.2 mi ENE 28.8 mph - N/A Snow Low Drifting Snow
9:00 AM 36 °F - 6 °F 16% 29.73 in 28 mi ENE 26.5 mph - -   Partly Cloudy
9:50 AM 35.6 °F 23.4 °F 10.4 °F 35% 29.74 in 6.2 mi East 25.3 mph - N/A Snow Low Drifting Snow
10:00 AM 36 °F - 6 °F 15% 29.75 in 31 mi ENE 25.3 mph - -   Mostly Cloudy
10:50 AM 35.6 °F 23.7 °F 10.4 °F 35% 29.77 in 6.2 mi ENE 24.2 mph - N/A Snow Low Drifting Snow
11:00 AM 36 °F - 5 °F 15% 29.78 in 31 mi ENE 23.0 mph - -   Mostly Cloudy
11:50 AM 35.6 °F 24.0 °F 8.6 °F 33% 29.77 in 6.2 mi East 23.0 mph - N/A Snow Low Drifting Snow
12:00 PM 36 °F - 5 °F 15% 29.80 in 31 mi East 21.9 mph - -   Overcast
12:50 PM 35.6 °F 24.5 °F 8.6 °F 33% 29.80 in 6.2 mi East 20.7 mph - N/A Snow Low Drifting Snow
1:00 PM 36 °F - 4 °F 14% 29.81 in 28 mi East 21.9 mph - -   Overcast
1:50 PM 35.6 °F 25.9 °F 8.6 °F 33% 29.80 in 6.2 mi East 16.1 mph - N/A Snow Low Drifting Snow
2:00 PM 36 °F - 4 °F 13% 29.83 in 31 mi East 16.1 mph - -   Overcast
2:50 PM 35.6 °F 27.1 °F 10.4 °F 35% 29.83 in 6.2 mi East 12.7 mph - N/A   Mostly Cloudy
3:00 PM 36 °F - 6 °F 15% 29.83 in 31 mi East 12.7 mph - -   Partly Cloudy
3:50 PM 37.4 °F 31.4 °F 14.0 °F 38% 29.86 in 6.2 mi SE 8.1 mph - N/A   Mostly Cloudy
4:00 PM 36 °F - 13 °F 24% 29.87 in 17 mi SSE 8.1 mph - -   Scattered Clouds
4:50 PM 33.8 °F 27.7 °F 21.2 °F 60% 29.89 in 6.2 mi South 6.9 mph - N/A   Mostly Cloudy
5:00 PM 34 °F - 19 °F 41% 29.90 in 31 mi East 4.6 mph - - Rain Drizzle
5:50 PM 32.0 °F 28.7 °F 24.8 °F 75% 29.89 in 6.2 mi Variable 3.5 mph - N/A   Mostly Cloudy
6:00 PM 31 °F - 23 °F 63% 29.91 in 9 mi SSE 2.3 mph - - Snow Light Snow Showers
7:00 PM 31 °F - 24 °F 66% 29.91 in 5 mi ENE 4.6 mph - - Rain Light Freezing Rain
8:00 PM 29 °F - 26 °F 83% 29.93 in 2 mi NW 2.3 mph - - Snow Light Snow
9:00 PM 29 °F - 27 °F 87% 29.94 in 0 mi SW 5.8 mph - - Snow Light Snow
10:00 PM 28 °F - 26 °F 86% 29.93 in 1 mi WSW 5.8 mph - - Snow Light Snow
11:00 PM 28 °F - 25 °F 85% 29.92 in 1 mi NW 2.3 mph - - Snow Light Snow